TimeCST,TemperatureF,Dew PointF,Humidity,Sea Level PressureIn,VisibilityMPH,Wind Direction,Wind SpeedMPH,Gust SpeedMPH,PrecipitationIn,Events,Conditions,WindDirDegrees,DateUTC
12:54 AM,32.0,24.1,73,30.22,10.0,North,3.5,-,N/A,,Overcast,360,2011-11-28 06:54:00
1:54 AM,30.9,24.1,76,30.21,10.0,NE,3.5,-,N/A,,Overcast,50,2011-11-28 07:54:00
2:54 AM,30.9,23.0,72,30.20,10.0,North,5.8,-,N/A,,Overcast,350,2011-11-28 08:54:00
3:54 AM,30.0,23.0,75,30.20,10.0,Variable,3.5,-,N/A,,Overcast,0,2011-11-28 09:54:00
4:54 AM,28.9,23.0,78,30.19,10.0,Calm,Calm,-,N/A,,Overcast,0,2011-11-28 10:54:00
5:34 AM,28.4,23.0,80,30.17,10.0,South,3.5,-,N/A,,Overcast,180,2011-11-28 11:34:00
5:54 AM,30.2,23.0,75,30.17,10.0,Calm,Calm,-,N/A,,Overcast,0,2011-11-28 11:54:00
6:54 AM,28.9,24.1,82,30.21,10.0,South,4.6,-,N/A,,Overcast,180,2011-11-28 12:54:00
7:54 AM,28.9,24.1,82,30.19,10.0,South,6.9,-,N/A,,Overcast,170,2011-11-28 13:54:00
8:54 AM,30.0,25.0,82,30.21,10.0,South,6.9,-,N/A,,Overcast,180,2011-11-28 14:54:00
9:54 AM,30.0,25.0,82,30.21,10.0,WSW,5.8,-,N/A,,Overcast,240,2011-11-28 15:54:00
10:54 AM,30.9,25.0,79,30.20,10.0,Calm,Calm,-,N/A,,Overcast,0,2011-11-28 16:54:00
11:41 AM,32.0,24.8,75,30.13,10.0,South,4.6,-,N/A,,Scattered Clouds,180,2011-11-28 17:41:00
11:54 AM,34.0,27.0,75,30.16,10.0,Calm,Calm,-,N/A,,Partly Cloudy,0,2011-11-28 17:54:00
12:54 PM,35.6,26.6,70,30.10,10.0,Calm,Calm,-,N/A,,Partly Cloudy,0,2011-11-28 18:54:00
1:54 PM,37.9,26.1,62,30.11,10.0,Calm,Calm,-,N/A,,Partly Cloudy,0,2011-11-28 19:54:00
2:54 PM,39.9,26.1,58,30.12,10.0,NW,5.8,-,N/A,,Partly Cloudy,310,2011-11-28 20:54:00
3:54 PM,39.0,26.1,60,30.11,10.0,West,3.5,-,N/A,,Partly Cloudy,270,2011-11-28 21:54:00
4:54 PM,36.0,26.1,67,30.12,10.0,WNW,4.6,-,N/A,,Partly Cloudy,300,2011-11-28 22:54:00
5:54 PM,34.0,26.1,73,30.11,10.0,NNW,3.5,-,N/A,,Partly Cloudy,330,2011-11-28 23:54:00
6:54 PM,34.0,25.0,70,30.12,10.0,NNW,5.8,-,N/A,,Clear,340,2011-11-29 00:54:00
7:54 PM,33.8,24.8,70,30.09,10.0,NNW,3.5,-,N/A,,Clear,340,2011-11-29 01:54:00
8:54 PM,32.0,25.0,75,30.10,10.0,NNW,8.1,-,N/A,,Partly Cloudy,340,2011-11-29 02:54:00
9:54 PM,30.9,25.0,79,30.10,10.0,NNW,10.4,-,N/A,,Partly Cloudy,330,2011-11-29 03:54:00
10:54 PM,35.6,24.8,65,30.07,10.0,North,15.0,23.0,N/A,,Scattered Clouds,360,2011-11-29 04:54:00
11:54 PM,39.0,26.1,60,30.13,10.0,NNE,16.1,25.3,N/A,,Partly Cloudy,20,2011-11-29 05:54:00